This is the latest recevied weather packets stored in our database for station/object 4S6DRJ-13. If no packets are shown the sender has not sent any weather packets the latest 10 day(s).
| Time | Temp. | Humidity | Pressure | Rain* | Wind** | Luminosity | Snow |
|---|---|---|---|---|---|---|---|
| 1787727200 | 29.44° C | 77% | 1010.4 hPa | 0 mm | 1.79 m/s, 237° | 587 W/m² | - |
| 1787727139 | 29.44° C | 77% | 1010.5 hPa | 0 mm | 0.89 m/s, 229° | 643 W/m² | - |
| 1787727078 | 29.44° C | 77% | 1010.6 hPa | 0 mm | 1.34 m/s, 280° | 617 W/m² | - |
| 1787727017 | 29.44° C | 76% | 1010.8 hPa | 0 mm | 1.79 m/s, 234° | 543 W/m² | - |
| 1787726956 | 29.44° C | 77% | 1010.8 hPa | 0 mm | 1.79 m/s, 357° | 481 W/m² | - |
| 1787726895 | 29.44° C | 77% | 1010.8 hPa | 0 mm | 1.34 m/s, 318° | 433 W/m² | - |
| 1787726834 | 29.44° C | 76% | 1010.7 hPa | 0 mm | 1.79 m/s, 278° | 531 W/m² | - |
| 1787726774 | 29.44° C | 76% | 1010.8 hPa | 0 mm | 1.79 m/s, 285° | 491 W/m² | - |
| 1787726712 | 29.44° C | 76% | 1010.9 hPa | 0 mm | 2.68 m/s, 157° | 484 W/m² | - |
| 1787726652 | 29.44° C | 76% | 1011 hPa | 0 mm | 2.68 m/s, 69° | 515 W/m² | - |
| 1787726590 | 29.44° C | 77% | 1010.9 hPa | 0 mm | 0.89 m/s, 219° | 522 W/m² | - |
| 1787726529 | 30° C | 76% | 1011 hPa | 0 mm | 1.34 m/s, 277° | 529 W/m² | - |
| 1787726468 | 30° C | 76% | 1010.9 hPa | 0 mm | 2.24 m/s, 223° | 544 W/m² | - |
| 1787726407 | 30° C | 76% | 1010.9 hPa | 0 mm | 1.34 m/s, 262° | 548 W/m² | - |
| 1787726346 | 30° C | 75% | 1011.1 hPa | 0 mm | 1.79 m/s, 227° | 552 W/m² | - |
| 1787726285 | 30° C | 74% | 1011 hPa | 0 mm | 1.79 m/s, 305° | 457 W/m² | - |
| 1787726225 | 30° C | 74% | 1011 hPa | 0 mm | 2.68 m/s, 230° | 436 W/m² | - |
| 1787726163 | 30° C | 75% | 1011.2 hPa | 0 mm | 0.45 m/s, 259° | 502 W/m² | - |
| 1787726102 | 30° C | 75% | 1011.1 hPa | 0 mm | 2.68 m/s, 253° | 603 W/m² | - |
| 1787726041 | 30° C | 75% | 1011.1 hPa | 0 mm | 0.89 m/s, 227° | 625 W/m² | - |
| 1787725979 | 30° C | 75% | 1011 hPa | 0 mm | 0.89 m/s, 233° | 636 W/m² | - |
| 1787725919 | 30° C | 75% | 1011.2 hPa | 0 mm | 0.89 m/s, 243° | 554 W/m² | - |
| 1787725857 | 30° C | 75% | 1011 hPa | 0 mm | 0.89 m/s, 251° | 674 W/m² | - |
| 1787725796 | 30° C | 75% | 1011.1 hPa | 0 mm | 0.89 m/s, 229° | 671 W/m² | - |
| 1787725735 | 30° C | 75% | 1011.2 hPa | 0 mm | 0.45 m/s, 330° | 604 W/m² | - |
* Rain latest hour (hover to see other rain measurements)
** Current wind speed in m/s (hover to see current wind gust speed)